This demonstration page uses our WeatherBlox Daily Observations layout. Learn more.

Left ArrowRight Arrow

39.51506, -84.39828

Hourly Observations for May 9, 2018

Temp ( °F °C ) Dew Point ( °F °C ) Humidity (%) Winds ( mph kmh ) Pressure ( in mb ) Visibility ( mi km ) Precip ( " mm )
2:55 am 02:55 Partly Cloudy 51 10.5 48 9.1 91 91 N N/A 30.06 1018 10 16 N/A
3:15 am 03:15 Partly Cloudy 51 10.5 48 9 91 91 N N/A 30.06 1018 10 16 N/A
3:55 am 03:55 Partly Cloudy 51 10.4 49 9.3 93 93 N N/A 30.03 1017 10 16 N/A
4:15 am 04:15 Partly Cloudy 51 10.7 49 9.6 93 93 N N/A 30.03 1017 10 16 N/A
4:35 am 04:35 Partly Cloudy 51 10.4 49 9.3 93 93 N N/A 30.03 1017 10 16 N/A
4:55 am 04:55 Mostly Cloudy 51 10.6 49 9.5 93 93 N N/A 30.03 1017 10 16 N/A
5:15 am 05:15 Mostly Cloudy 51 10.6 49 9.5 93 93 N N/A 30.03 1017 10 16 N/A
5:35 am 05:35 Clear 51 10.4 49 9.3 93 93 N N/A 30.03 1017 10 16 N/A
5:55 am 05:55 Clear 50 9.9 48 8.9 94 94 N 3 6 30.03 1017 10 16 N/A
6:15 am 06:15 Clear 50 10.2 49 9.4 95 95 N N/A 30.03 1017 10 16 N/A
6:35 am 06:35 Sunny 49 9.5 48 8.8 95 95 N N/A 30.06 1018 10 16 N/A
6:55 am 06:55 Sunny 50 9.9 49 9.3 96 96 N N/A 30.06 1018 10 16 N/A
7:15 am 07:15 Sunny 50 10.1 49 9.4 95 95 N N/A 30.06 1018 7 11 N/A
7:35 am 07:35 Sunny 51 10.4 49 9.7 95 95 N N/A 30.06 1018 10 16 N/A
7:55 am 07:55 Sunny with Mist and Fog 53 11.8 52 11.2 96 96 N N/A 30.06 1018 7 11 N/A
8:15 am 08:15 Sunny 56 13.3 54 12.1 93 93 N N/A 30.06 1018 10 16 N/A
8:35 am 08:35 Sunny 58 14.7 55 12.5 87 87 N N/A 30.06 1018 7 11 N/A
8:55 am 08:55 Sunny 62 16.5 55 12.6 78 78 SSW 3 6 30.00 1016 7 11 N/A
9:15 am 09:15 Sunny 65 18.4 55 12.6 69 69 SSW 5 7 30.00 1016 10 16 N/A
9:35 am 09:35 Sunny 67 19.7 56 13.1 66 66 S 3 6 30.00 1016 10 16 N/A
9:55 am 09:55 Sunny 71 21.4 56 13.6 61 61 SW 6 9 30.00 1016 10 16 N/A
10:15 am 10:15 Sunny 73 22.5 56 13.2 56 56 S 10 17 30.00 1016 10 16 N/A
10:35 am 10:35 Sunny 73 23 56 13.1 54 54 S 10 17 30.00 1016 10 16 N/A
10:55 am 10:55 Sunny 74 23.6 55 13 52 52 SSW 15 24 30.00 1016 10 16 N/A
11:15 am 11:15 Sunny 76 24.3 55 12.5 48 48 S 12 19 29.97 1015 10 16 N/A
11:35 am 11:35 Sunny 77 24.9 54 12.1 45 45 SSW 16 26 29.97 1015 10 16 N/A
11:55 am 11:55 Partly Cloudy 77 25 53 11.9 44 44 SSW 14 22 29.97 1015 10 16 N/A
12:15 pm 12:15 Mostly Cloudy 78 25.6 53 11.4 41 41 SSW 14 22 29.97 1015 10 16 N/A
12:35 pm 12:35 Partly Cloudy 78 25.5 53 11.7 42 42 SSW 17 28 29.97 1015 10 16 N/A
12:55 pm 12:55 Partly Cloudy 78 25.8 53 11.8 42 42 SSW 15 24 29.94 1014 10 16 N/A
1:15 pm 13:15 Mostly Cloudy 79 25.9 54 12.4 43 43 S 14 22 29.94 1014 10 16 N/A
1:35 pm 13:35 Mostly Cloudy 79 26.2 55 12.6 43 43 SSW 14 22 29.94 1014 10 16 N/A
1:55 pm 13:55 Sunny 80 26.8 55 12.5 41 41 S 17 28 29.94 1014 10 16 N/A
2:15 pm 14:15 Sunny 81 27 56 13.4 43 43 S 20 31 29.91 1013 10 16 N/A
2:35 pm 14:35 Mostly Cloudy with Nearby Thunderstorms 81 27.1 56 13.4 43 43 S 22 35 29.91 1013 10 16 N/A
2:55 pm 14:55 Mostly Cloudy with Nearby Thunderstorms 80 26.6 57 13.9 46 46 SSW 20 31 29.91 1013 10 16 N/A
3:15 pm 15:15 Partly Cloudy 80 26.9 58 14.2 46 46 S 16 26 29.91 1013 10 16 N/A
3:35 pm 15:35 Partly Cloudy 81 27 58 14.6 47 47 S 18 30 29.85 1011 10 16 N/A
3:55 pm 15:55 Sunny 79 26 58 14.4 49 49 SSW 18 30 29.88 1012 10 16 N/A
4:15 pm 16:15 Sunny 79 26.3 58 14.7 49 49 S 22 35 29.88 1012 10 16 N/A
4:35 pm 16:35 Sunny 80 26.4 59 15.1 50 50 SSW 18 30 29.88 1012 10 16 N/A
4:55 pm 16:55 Sunny 80 26.5 59 14.9 49 49 S 21 33 29.88 1012 10 16 N/A
5:15 pm 17:15 Sunny 78 25.7 58 14.7 51 51 S 16 26 29.85 1011 10 16 N/A
5:35 pm 17:35 Sunny 79 26 59 14.8 50 50 S 14 22 29.85 1011 10 16 N/A
5:55 pm 17:55 Sunny 79 26.2 58 14.7 49 49 S 17 28 29.85 1011 10 16 N/A
6:15 pm 18:15 Sunny 78 25.7 58 14.4 50 50 S 15 24 29.85 1011 10 16 N/A
6:35 pm 18:35 Partly Cloudy with Nearby Thunderstorms 78 25.4 58 14.6 51 51 S 14 22 29.85 1011 10 16 N/A
6:55 pm 18:55 Mostly Cloudy with Thunderstorms 78 25.3 59 14.9 53 53 S 13 20 29.83 1010 10 16 N/A
7:15 pm 19:15 Mostly Cloudy 77 24.9 60 15.7 57 57 S 10 17 29.83 1010 10 16 N/A
7:35 pm 19:35 Mostly Cloudy 77 24.9 60 15.6 56 56 S 13 20 29.83 1010 10 16 N/A
7:55 pm 19:55 Partly Cloudy 76 24.2 61 15.9 60 60 S 12 19 29.83 1010 10 16 N/A
8:15 pm 20:15 Partly Cloudy 75 23.9 60 15.7 60 60 S 16 26 29.83 1010 10 16 N/A
8:35 pm 20:35 Sunny 74 23.1 60 15.5 62 62 S 9 15 29.83 1010 10 16 N/A
8:55 pm 20:55 Clear 72 22.4 60 15.3 64 64 S 9 15 29.83 1010 10 16 N/A
9:15 pm 21:15 Clear 73 22.5 59 15.1 63 63 SSW 6 9 29.83 1010 10 16 N/A
9:35 pm 21:35 Clear 71 21.7 60 15.4 68 68 SSW 6 9 29.83 1010 10 16 N/A
9:55 pm 21:55 Clear 73 22.9 60 15.4 63 63 S 9 15 29.83 1010 10 16 N/A
10:15 pm 22:15 Partly Cloudy 73 22.6 60 15.5 64 64 S 7 11 29.83 1010 10 16 N/A
10:35 pm 22:35 Partly Cloudy 73 22.5 60 15.4 64 64 SSW 9 15 29.83 1010 10 16 N/A
10:55 pm 22:55 Clear 73 22.8 60 15.4 63 63 SSW 15 24 29.83 1010 10 16 N/A
11:15 pm 23:15 Clear 73 22.7 60 15.3 63 63 S 13 20 29.83 1010 10 16 N/A
11:35 pm 23:35 Partly Cloudy 72 22.3 60 15.4 65 65 S 13 20 29.83 1010 10 16 N/A
11:55 pm 23:55 Mostly Cloudy with Nearby Thunderstorms 72 22.3 60 15.4 65 65 S 10 17 29.83 1010 10 16 N/A

Powered by AerisWeather